Stations météo

réclame
Mon MeteoGroup
Idre, Suède (2307): Température de l'air & dewpoint: 15.01.2019 17:00:00 - 21.01.2019 17:00:00 (CET)
Date & Time tt [°C] td [°C]
21.01.2019 17:00:00 - -
21.01.2019 16:00:00 -10,0 -12,0
21.01.2019 15:00:00 -10,1 -12,1
21.01.2019 14:00:00 -10,1 -12,0
21.01.2019 13:00:00 -9,7 -11,7
21.01.2019 12:00:00 -10,9 -12,9
21.01.2019 11:00:00 -10,9 -12,9
21.01.2019 10:00:00 -11,2 -13,2
21.01.2019 09:00:00 -11,0 -12,9
21.01.2019 08:00:00 -10,5 -13,9
21.01.2019 07:00:00 -10,7 -14,3
21.01.2019 06:00:00 -11,1 -14,2
21.01.2019 05:00:00 -11,3 -13,8
21.01.2019 04:00:00 -11,6 -14,1
21.01.2019 03:00:00 -11,7 -14,0
21.01.2019 02:00:00 -11,4 -14,3
21.01.2019 01:00:00 -11,0 -14,6
21.01.2019 00:00:00 -10,7 -14,4
20.01.2019 23:00:00 -9,7 -14,0
20.01.2019 22:00:00 -9,5 -14,3
20.01.2019 21:00:00 -9,6 -13,4
20.01.2019 20:00:00 -9,9 -13,8
20.01.2019 19:00:00 -10,0 -13,8
20.01.2019 18:00:00 -9,9 -13,3
20.01.2019 17:00:00 -9,8 -12,8
20.01.2019 16:00:00 -9,6 -12,4
20.01.2019 15:00:00 -9,2 -11,9
20.01.2019 14:00:00 -8,9 -11,7
20.01.2019 13:00:00 -9,2 -12,3
20.01.2019 12:00:00 -9,5 -12,6
20.01.2019 11:00:00 -10,3 -12,5
20.01.2019 10:00:00 -10,1 -12,1
20.01.2019 09:00:00 -10,2 -12,1
20.01.2019 08:00:00 - -
20.01.2019 07:00:00 -10,3 -12,3
20.01.2019 06:00:00 -10,1 -12,6
20.01.2019 05:00:00 -10,1 -12,9
20.01.2019 04:00:00 -10,6 -12,9
20.01.2019 03:00:00 -10,2 -12,8
20.01.2019 02:00:00 -9,9 -12,5
20.01.2019 01:00:00 -10,1 -12,6
20.01.2019 00:00:00 -9,9 -12,8
19.01.2019 23:00:00 -9,7 -12,7
19.01.2019 22:00:00 -9,8 -12,3
19.01.2019 21:00:00 -10,0 -12,9
19.01.2019 20:00:00 -10,2 -12,8
19.01.2019 19:00:00 -10,6 -13,4
19.01.2019 18:00:00 -10,6 -13,2
19.01.2019 17:00:00 -9,8 -13,1
19.01.2019 16:00:00 -9,4 -12,7
19.01.2019 15:00:00 -8,7 -12,2
19.01.2019 14:00:00 -8,4 -11,3
19.01.2019 13:00:00 -7,4 -9,9
19.01.2019 12:00:00 -7,6 -10,0
19.01.2019 11:00:00 -8,4 -10,3
19.01.2019 10:00:00 -8,7 -10,6
19.01.2019 09:00:00 -9,1 -11,0
19.01.2019 08:00:00 -9,4 -11,4
19.01.2019 07:00:00 -9,3 -11,5
19.01.2019 06:00:00 -9,4 -11,9
19.01.2019 05:00:00 -9,8 -13,2
19.01.2019 04:00:00 -9,1 -14,5
19.01.2019 03:00:00 -9,3 -14,8
19.01.2019 02:00:00 -9,3 -14,7
19.01.2019 01:00:00 -9,4 -14,0
19.01.2019 00:00:00 -9,0 -13,3
18.01.2019 23:00:00 -9,2 -12,9
18.01.2019 22:00:00 -9,3 -12,1
18.01.2019 21:00:00 -8,5 -11,3
18.01.2019 20:00:00 -8,8 -11,6
18.01.2019 19:00:00 -8,6 -11,7
18.01.2019 18:00:00 -8,4 -11,1
18.01.2019 17:00:00 -9,0 -11,2
18.01.2019 16:00:00 -8,5 -11,3
18.01.2019 15:00:00 -8,2 -11,2
18.01.2019 14:00:00 -8,1 -11,1
18.01.2019 13:00:00 -7,9 -10,3
18.01.2019 12:00:00 -8,8 -10,6
18.01.2019 11:00:00 -9,4 -11,4
18.01.2019 10:00:00 -10,3 -12,3
18.01.2019 09:00:00 -10,5 -12,7
18.01.2019 08:00:00 -10,1 -12,7
18.01.2019 07:00:00 -10,0 -12,5
18.01.2019 06:00:00 -10,2 -12,1
18.01.2019 05:00:00 -10,2 -12,5
18.01.2019 04:00:00 -10,1 -12,1
18.01.2019 03:00:00 -9,7 -11,9
18.01.2019 02:00:00 -9,6 -11,9
18.01.2019 01:00:00 -10,0 -12,0
18.01.2019 00:00:00 -9,7 -12,0
17.01.2019 23:00:00 -9,8 -12,0
17.01.2019 22:00:00 -9,2 -11,4
17.01.2019 21:00:00 -9,1 -11,0
17.01.2019 20:00:00 -8,7 -10,8
17.01.2019 19:00:00 -8,8 -10,6
17.01.2019 18:00:00 -8,9 -10,7
17.01.2019 17:00:00 -10,1 -12,1
17.01.2019 16:00:00 -11,8 -14,2
17.01.2019 15:00:00 -11,8 -14,1
17.01.2019 14:00:00 -12,0 -14,4
17.01.2019 13:00:00 -12,0 -14,4
17.01.2019 12:00:00 -11,9 -14,3
17.01.2019 11:00:00 -11,7 -14,0
17.01.2019 10:00:00 -12,1 -14,4
17.01.2019 09:00:00 -12,3 -14,4
17.01.2019 08:00:00 -12,0 -14,0
17.01.2019 07:00:00 -11,8 -14,0
17.01.2019 06:00:00 -11,7 -14,0
17.01.2019 05:00:00 -11,8 -14,0
17.01.2019 04:00:00 -12,2 -14,3
17.01.2019 03:00:00 -12,5 -14,6
17.01.2019 02:00:00 -12,9 -15,2
17.01.2019 01:00:00 -13,1 -15,5
17.01.2019 00:00:00 -13,6 -16,2
16.01.2019 23:00:00 -13,4 -15,7
16.01.2019 22:00:00 -12,5 -14,8
16.01.2019 21:00:00 -11,8 -14,1
16.01.2019 20:00:00 -11,6 -13,8
16.01.2019 19:00:00 -10,5 -12,5
16.01.2019 18:00:00 -10,7 -12,7
16.01.2019 17:00:00 -10,9 -12,9
16.01.2019 16:00:00 -11,5 -13,4
16.01.2019 15:00:00 -11,9 -13,8
16.01.2019 14:00:00 -12,2 -14,2
16.01.2019 13:00:00 -12,7 -14,7
16.01.2019 12:00:00 -12,9 -15,0
16.01.2019 11:00:00 -12,7 -14,8
16.01.2019 10:00:00 -11,8 -14,0
16.01.2019 09:00:00 -12,3 -14,6
16.01.2019 08:00:00 -11,6 -14,2
16.01.2019 07:00:00 -11,0 -13,9
16.01.2019 06:00:00 -11,7 -14,5
16.01.2019 05:00:00 -11,2 -14,1
16.01.2019 04:00:00 -11,2 -14,1
16.01.2019 03:00:00 -10,4 -13,2
16.01.2019 02:00:00 -9,6 -12,2
16.01.2019 01:00:00 -11,6 -13,9
16.01.2019 00:00:00 -11,4 -13,6
15.01.2019 23:00:00 -11,3 -13,5
15.01.2019 22:00:00 -11,6 -13,6
15.01.2019 21:00:00 -11,8 -13,8
15.01.2019 20:00:00 -11,8 -14,0
15.01.2019 19:00:00 -11,2 -14,0
15.01.2019 18:00:00 -10,2 -12,4
15.01.2019 17:00:00 -10,3 -12,5

tt = Température de l'air
td = dewpoint

stations d'obs. à proximité